Location: Duac?
(36.9744°N, 30.6500°E)
Time: 06:35:35
(UTC+00:00)

Atlas Centaur 2 - Pass Details

Date: 05 August 2024
Orbit: 457 x 1271 km, 30.4° (Epoch: 10 September)

Event Time Altitude Azimuth Distance (km) Brightness Sun altitude
Rises 19:37:42 0° 253° (WSW) 2,804 5.2 -26.3°
Reaches altitude 10° 19:39:53 10° 246° (WSW) 2,006 4.3 -26.6°
Enters shadow 19:41:10 18° 237° (WSW) 1,583 3.7 -26.8°
